Wetbulb
56.82 56.52 55.98 55.11 54.64 54.81 55.25 55.27 54.15 53.88 54.15 54.64 54.31 54.08 53.76 53.26 52.96 52.77 52.48 51.97 51.63 51.34 51.03 50.84 50.43 49.85 49.00 47.60 47.12 46.85 46.60 46.37 45.82 45.24 44.70 44.86 45.47 45.41 45.11 44.69 44.21 43.99 43.88 43.81 43.36 42.94 42.66 42.26 42.66 42.92 42.43 41.04 40.57 39.84 39.35 39.12 38.23 37.63 37.34 37.65 37.50 36.89 36.45 36.76 37.00 36.45 35.77 35.32 36.04
56.99 56.44 55.52 53.73 53.51 54.24 55.20 55.11 54.36 53.87 53.96 54.73 54.60 54.36 54.04 53.71 53.52 53.41 53.09 52.65 52.47 52.18 51.81 51.38 50.78 50.07 49.08 47.96 47.40 47.05 46.85 46.55 46.07 45.39 44.91 44.77 45.24 45.38 45.23 45.02 44.47 44.28 44.17 43.92 43.59 43.67 43.54 42.73 42.98 43.11 42.96 41.71 40.69 39.96 39.35 38.58 38.24 37.68 37.09 37.03 37.27 37.12 37.05 37.42 37.27 36.59 35.85 35.59 35.39
57.39 56.93 56.25 55.58 55.25 55.36 55.52 55.59 55.32 54.79 54.39 54.54 54.60 54.52 54.27 53.95 53.81 53.80 53.72 53.59 53.01 52.61 52.08 51.74 51.10 50.11 48.99 48.14 47.68 47.45 47.23 46.90 46.40 45.89 45.54 45.26 45.29 45.29 45.31 45.36 44.76 44.43 44.18 44.35 44.13 44.13 44.05 43.24 43.18 43.20 43.23 43.11 41.79 41.08 40.17 38.41 38.02 38.08 38.07 37.42 37.92 37.95 38.11 38.82 37.32 36.20 35.82 36.17 35.56
57.55 57.17 56.73 56.19 55.57 55.44 55.43 55.77 55.58 55.13 54.81 54.92 54.60 54.35 54.13 54.14 53.98 53.97 53.95 53.64 53.01 52.50 52.35 52.18 51.62 50.48 49.39 48.44 47.78 47.53 47.25 46.62 46.40 46.11 45.85 45.66 45.42 45.25 45.16 45.29 44.90 44.70 44.61 44.51 44.18 43.96 43.67 43.22 43.50 43.66 43.51 42.72 41.87 41.75 41.43 40.20 38.43 38.91 39.60 38.90 38.67 38.46 38.50 38.87 37.60 36.95 36.77 36.54 35.66
57.52 57.43 57.20 56.79 55.95 55.73 55.75 55.94 55.66 55.37 55.18 55.31 54.88 54.59 54.28 54.39 54.12 53.97 53.66 53.19 53.22 52.97 52.73 52.31 51.96 51.06 49.91 48.73 47.76 47.35 47.07 46.49 45.50 45.76 46.24 45.84 45.65 45.45 45.28 45.15 45.13 44.98 44.74 44.49 44.13 43.98 43.61 42.92 43.93 44.24 43.83 42.85 43.03 42.71 41.90 40.16 39.23 39.32 39.79 40.00 39.40 39.04 38.83 38.66 37.94 37.41 37.19 37.11 36.28
57.61 57.58 57.57 57.36 56.40 55.92 55.93 56.14 55.74 55.45 55.45 55.44 54.87 54.44 54.35 54.50 54.19 53.78 53.41 53.49 53.59 53.01 52.09 50.92 50.81 50.28 49.40 48.52 47.77 47.34 47.07 46.92 46.31 46.31 46.32 46.04 45.88 45.51 45.15 44.91 45.11 45.24 45.15 44.68 44.19 43.88 43.57 43.22 44.26 44.41 44.04 43.40 42.72 41.87 41.01 40.24 40.23 40.11 40.12 40.24 39.83 39.47 39.14 38.69 38.18 37.79 37.67 37.61 37.13
57.83 57.71 57.65 57.44 56.73 56.25 56.01 56.00 55.94 55.70 55.46 55.48 54.62 54.12 53.95 54.28 54.31 53.71 53.30 53.36 53.51 52.80 51.60 50.53 50.32 50.10 49.59 48.67 47.93 47.49 47.24 47.17 46.91 46.55 46.27 46.21 45.93 45.53 45.23 45.28 45.23 45.20 45.13 44.98 44.45 44.30 44.17 44.04 44.50 44.41 43.69 42.47 42.23 41.25 40.11 40.06 40.84 41.01 40.93 40.69 40.32 39.94 39.57 38.76 38.64 38.50 38.11 37.71 37.58
58.04 57.88 57.75 57.60 57.07 56.56 56.01 55.79 55.86 55.66 55.47 55.53 54.93 54.33 53.93 53.92 53.91 53.57 53.24 53.02 53.12 52.57 51.94 51.41 51.17 50.72 50.05 49.25 48.46 47.83 47.40 47.17 47.04 46.90 46.74 46.75 46.08 45.65 45.57 45.51 45.47 45.45 45.39 45.30 44.89 44.68 44.68 44.78 45.06 44.84 44.05 42.94 42.74 41.45 40.10 39.64 40.64 41.21 41.48 41.52 41.00 40.34 39.77 39.62 39.11 38.78 38.45 37.79 37.56
58.21 58.04 57.98 57.76 57.49 56.95 56.37 55.87 55.79 55.61 55.50 55.42 55.23 54.70 54.15 53.77 53.77 53.52 53.32 53.02 52.73 52.41 52.06 52.03 51.31 50.63 49.93 49.29 48.67 48.06 47.73 47.42 48.07 48.31 48.09 47.25 46.65 46.21 46.05 46.09 45.92 45.84 45.78 45.78 45.33 45.00 44.91 45.24 45.46 45.09 44.53 43.80 43.32 42.16 40.96 40.23 40.84 41.36 41.64 42.01 41.45 40.75 39.99 39.71 39.34 39.23 38.87 38.26 38.20
58.34 58.22 58.08 57.94 57.64 57.12 56.51 56.11 55.87 55.53 55.40 55.32 55.13 54.76 53.79 52.14 52.78 53.27 53.60 53.50 52.64 52.17 51.96 52.11 51.39 50.45 49.73 49.19 48.75 48.36 47.93 47.83 48.58 48.85 48.56 47.72 47.02 46.60 46.67 46.97 46.69 46.44 46.24 46.26 46.08 45.65 45.28 45.28 45.18 44.87 44.33 43.55 43.17 42.54 41.80 41.05 41.56 41.68 41.93 42.64 41.81 40.96 40.29 39.73 39.58 39.51 39.32 38.97 39.09
58.46 58.44 58.32 58.20 57.83 57.27 56.60 56.22 55.87 55.61 55.37 55.63 55.32 54.98 54.20 52.58 52.91 53.24 53.50 53.42 52.85 52.28 51.86 51.90 51.10 50.40 49.80 49.34 49.00 48.54 48.31 48.49 49.35 49.45 49.01 48.04 47.35 46.97 46.94 47.01 47.14 47.00 46.90 46.90 46.90 46.50 45.95 45.50 45.11 44.51 43.90 43.76 43.62 43.18 42.57 41.68 41.96 41.95 42.17 43.26 42.30 41.57 41.00 40.42 40.21 40.18 40.31 40.14 40.34
58.82 58.68 58.56 58.44 58.15 57.59 56.98 56.52 56.18 55.94 55.62 55.54 55.46 55.42 55.13 54.54 54.04 53.43 53.08 52.97 52.65 52.34 51.99 51.65 51.03 50.53 50.04 49.83 49.06 48.37 48.19 48.85 49.74 49.86 49.37 48.62 48.36 47.86 47.34 47.07 47.28 47.42 47.44 47.37 47.41 47.14 46.57 45.91 45.41 44.76 44.14 43.94 44.24 43.92 43.18 42.10 42.07 42.07 42.20 42.63 42.39 42.18 41.85 41.49 41.36 41.65 41.86 41.61 41.25
59.14 58.94 58.76 58.56 58.31 57.75 57.19 56.70 56.60 56.40 56.09 55.69 55.77 55.71 55.63 55.45 54.35 53.61 53.08 52.87 52.60 52.67 52.48 51.78 50.92 50.61 50.32 50.00 49.03 48.62 48.72 49.39 50.01 49.87 49.62 49.24 49.01 48.59 48.14 47.35 47.44 47.59 47.79 47.66 47.76 47.60 47.13 46.40 45.74 45.32 44.91 44.74 44.73 44.23 43.45 42.72 42.57 42.62 42.69 42.80 42.55 42.76 42.92 42.56 42.71 42.67 42.54 41.89 41.56
59.30 59.10 58.94 58.74 58.26 57.83 57.46 56.96 56.86 56.71 56.33 55.97 55.94 55.98 56.00 55.90 54.80 53.87 53.26 53.18 52.96 53.00 52.79 52.02 51.05 50.76 50.55 50.16 49.29 48.98 49.04 49.85 50.21 50.13 49.88 49.82 49.21 48.78 48.29 47.61 47.53 47.64 47.95 48.10 47.94 47.74 47.42 46.91 46.25 45.80 45.45 45.00 45.00 44.33 43.77 43.43 43.31 43.37 43.35 43.33 42.91 42.99 43.48 43.78 43.65 43.23 42.57 41.68 41.48
59.38 59.24 59.04 58.72 58.32 58.00 57.70 57.25 57.12 56.96 56.61 56.33 56.16 56.20 56.24 56.32 55.28 54.38 53.74 53.65 53.28 53.16 53.12 52.63 51.86 51.02 50.32 49.95 49.49 49.36 49.44 49.91 50.34 50.54 50.54 50.11 49.38 48.86 48.38 47.59 47.50 47.68 47.95 48.12 48.05 47.76 47.51 47.23 46.79 46.20 45.78 45.27 45.12 44.79 44.36 44.02 43.99 44.09 44.14 44.01 43.72 43.82 44.29 44.72 44.54 43.81 42.82 41.77 41.52
59.32 59.18 59.12 58.82 58.38 58.09 57.87 57.51 57.55 57.38 57.08 56.77 56.55 56.47 56.42 56.53 55.98 55.03 54.11 53.71 53.64 53.47 53.30 52.91 52.55 51.93 50.92 49.57 49.42 49.49 49.87 50.57 51.51 51.87 51.53 50.72 49.88 49.10 48.40 47.83 47.93 48.08 48.06 48.03 47.98 47.80 47.61 47.45 47.19 46.62 46.06 45.47 45.43 45.13 44.81 44.28 44.59 44.68 44.73 44.73 44.78 44.96 45.01 45.00 44.81 44.09 43.06 42.05 41.77
59.22 59.20 59.14 58.84 58.56 58.19 57.99 57.83 57.86 57.70 57.56 57.25 56.84 56.63 56.47 56.57 56.57 55.54 54.30 53.56 53.99 53.89 53.57 53.15 53.09 52.74 51.67 49.98 49.52 49.60 50.29 51.40 52.59 53.01 52.65 51.51 50.38 49.11 48.26 48.19 48.84 48.99 48.90 48.55 48.20 47.96 47.73 47.39 47.36 46.98 46.41 45.79 45.86 45.76 45.38 44.83 45.02 45.08 45.17 45.40 45.43 45.42 45.33 45.03 44.87 44.31 43.37 42.37 42.08
59.13 59.10 59.02 58.78 58.58 58.34 58.15 58.07 58.10 57.93 57.75 57.46 57.17 56.86 56.71 56.73 56.71 56.08 55.14 54.09 54.19 54.12 53.80 53.35 53.42 53.24 52.62 51.28 50.32 50.11 50.55 52.01 52.87 53.02 52.72 51.92 50.33 49.06 48.33 48.60 49.33 49.67 49.65 49.37 48.73 48.18 47.75 47.41 47.31 47.07 46.57 46.05 46.28 46.33 46.26 45.77 45.76 45.71 45.78 45.92 45.81 45.74 45.52 45.18 45.10 44.82 44.11 43.03 42.46
58.91 58.93 58.88 58.76 58.60 58.46 58.30 57.93 57.97 58.04 57.97 57.78 57.61 57.31 57.02 56.89 56.89 56.71 56.25 55.46 54.65 54.60 54.74 54.39 53.92 53.59 53.11 52.11 51.22 50.61 50.64 51.80 52.24 52.20 51.77 51.03 49.67 48.72 48.26 48.50 49.11 49.49 49.44 49.08 48.59 48.02 47.68 47.34 47.09 46.80 46.44 46.08 46.47 46.79 47.02 46.85 46.77 46.68 46.62 46.27 46.03 45.88 45.69 45.43 45.15 44.99 44.58 43.82 43.10
58.77 58.83 58.70 58.74 58.76 58.70 58.54 58.21 58.18 58.18 58.25 58.17 57.95 57.69 57.33 57.10 56.94 56.69 56.57 56.23 55.30 55.03 55.00 54.87 54.35 53.72 53.17 52.44 51.83 51.31 51.05 51.37 51.32 51.06 50.61 49.98 48.99 48.39 48.03 48.11 48.35 48.45 48.36 48.32 47.98 47.70 47.58 47.50 47.17 46.90 46.59 46.13 46.29 46.75 47.20 47.18 47.23 47.29 47.22 46.90 46.50 46.18 45.94 45.63 45.11 44.71 44.27 43.82 43.53
58.70 58.74 58.77 58.86 58.94 58.86 58.85 58.77 58.71 58.59 58.45 58.18 58.15 57.94 57.61 57.31 57.04 56.85 56.78 56.57 56.17 55.52 54.98 54.52 54.23 53.73 53.18 52.81 52.42 51.94 51.42 51.16 50.76 50.23 49.73 49.17 48.38 47.96 47.68 47.60 47.53 47.63 47.78 47.75 47.60 47.48 47.30 47.43 47.22 47.04 46.71 46.37 46.26 46.53 46.93 46.96 47.15 47.42 47.45 47.22 46.85 46.45 45.91 45.46 44.79 44.16 43.63 43.34 43.21
58.90 58.93 58.90 58.90 58.98 58.98 59.06 59.07 58.98 58.87 58.54 58.29 58.20 58.00 57.75 57.45 57.14 56.96 56.78 56.72 56.59 56.09 55.27 54.62 54.25 53.91 53.66 53.63 53.38 52.70 52.04 51.21 50.45 49.85 49.28 48.87 48.39 47.98 47.68 47.45 47.48 47.55 47.50 47.42 47.27 47.15 47.00 47.08 47.13 47.19 47.10 46.91 46.70 46.62 46.61 46.61 47.06 47.27 47.13 46.83 46.49 46.00 45.51 45.01 44.33 43.78 43.34 42.91 42.83
59.12 59.18 58.99 58.88 58.88 58.51 58.25 58.76 59.04 59.01 58.64 58.27 58.13 57.92 57.80 57.38 57.16 56.80 56.61 56.49 56.35 56.17 55.76 55.09 54.77 54.56 54.44 54.39 53.92 53.14 52.10 51.09 50.26 49.44 48.90 48.60 48.37 48.21 47.93 47.98 47.95 47.75 47.48 47.42 47.18 47.12 47.38 47.66 47.34 47.47 47.69 47.62 47.20 46.81 46.64 46.52 46.83 46.86 46.65 46.33 45.95 45.39 44.87 44.33 43.81 43.51 43.10 42.79 42.68
59.24 59.33 59.33 59.21 59.18 58.88 58.71 58.88 59.01 58.87 58.40 58.10 57.94 57.77 57.57 57.28 57.12 56.81 56.47 56.27 56.33 56.31 56.06 55.73 55.19 54.95 54.71 54.29 53.83 53.09 52.21 51.18 50.10 49.14 48.43 48.05 48.19 48.09 48.11 48.38 48.30 47.87 47.65 47.25 46.80 46.77 47.23 48.08 48.25 48.15 47.88 47.65 47.40 47.32 47.25 47.18 46.95 46.68 46.19 45.80 45.37 44.97 44.45 43.82 43.20 42.75 42.47 42.27 42.39
59.61 59.45 59.30 59.60 59.21 58.87 58.77 58.66 58.66 58.43 58.12 57.98 57.89 57.73 57.55 57.30 57.03 56.79 56.55 56.25 56.22 56.30 56.25 55.93 55.39 55.03 54.59 54.12 53.57 53.02 52.36 51.57 50.46 49.38 48.35 47.76 47.72 47.76 47.99 48.44 48.50 48.21 47.64 46.64 44.74 43.97 44.19 45.13 47.65 48.82 48.78 48.12 47.74 47.63 47.48 47.13 46.59 46.16 45.71 45.06 44.56 44.29 43.86 42.93 42.05 41.52 41.43 41.78 42.02
59.72 59.55 59.39 59.30 59.02 58.73 58.52 58.35 58.31 58.25 58.06 57.98 57.77 57.67 57.59 57.53 57.23 56.80 56.41 56.14 56.14 56.24 56.30 56.20 55.65 54.43 53.45 53.70 53.15 52.45 51.89 51.50 50.81 49.91 49.00 48.16 47.65 47.31 47.57 48.29 48.39 48.31 47.65 46.06 43.09 41.90 41.99 42.78 44.33 46.00 47.58 49.14 48.34 47.64 46.97 46.44 45.95 45.59 45.30 44.77 44.15 43.77 43.31 42.50 41.61 40.97 40.69 41.00 41.39
59.33 59.16 59.10 59.05 58.68 58.37 58.28 58.28 58.35 58.32 58.17 58.02 57.73 57.67 57.61 57.67 57.67 57.14 56.52 56.14 56.14 56.19 56.27 56.27 56.05 53.99 52.24 52.98 52.26 51.47 50.83 50.31 49.97 49.66 49.21 48.57 47.86 47.26 47.25 47.87 48.07 48.26 47.54 45.04 42.34 41.34 41.35 41.78 42.52 43.36 45.17 48.61 48.38 47.61 46.83 46.23 45.38 45.06 44.81 44.64 44.10 43.61 43.07 42.38 41.73 40.92 40.44 40.28 40.53
58.77 58.73 58.66 58.57 58.40 58.31 58.27 58.38 58.30 58.19 58.23 58.15 57.97 57.79 57.67 57.73 57.65 57.34 56.78 56.33 56.19 56.02 56.09 56.22 56.12 54.97 53.56 52.70 51.71 50.83 50.12 49.55 49.39 49.16 48.75 48.25 47.62 47.19 47.24 47.83 48.11 47.47 46.10 43.99 42.46 41.99 41.86 41.97 42.28 42.69 43.73 45.86 48.07 47.70 46.53 45.61 44.85 44.48 44.23 44.10 43.73 43.20 42.67 42.43 42.06 41.33 40.51 39.99 39.73
58.39 58.36 58.34 58.12 58.20 58.28 58.32 58.27 58.14 58.24 58.37 58.42 58.37 58.01 57.69 57.42 57.36 57.27 57.03 56.61 56.11 55.90 55.95 56.11 55.94 55.08 53.76 52.02 50.94 50.04 49.24 48.78 49.12 49.05 48.66 47.72 47.19 47.03 47.20 47.84 48.00 46.35 44.10 42.19 42.47 42.54 42.49 42.31 42.19 42.28 42.92 44.22 47.40 48.26 47.65 46.35 45.29 44.53 44.09 43.88 43.53 43.00 42.47 42.06 41.65 40.99 40.38 39.89 39.46
57.97 58.03 58.09 58.00 58.08 58.14 58.25 58.29 58.26 58.24 58.41 58.64 58.45 58.01 57.57 57.04 56.99 57.03 56.87 56.63 56.16 55.96 55.77 55.73 55.27 54.37 53.20 51.56 50.18 48.82 47.85 47.50 48.54 49.07 48.89 47.97 47.38 46.95 46.85 46.74 48.11 46.45 43.53 40.51 41.50 42.20 42.50 42.54 42.23 42.02 41.99 42.20 45.21 47.33 47.98 46.86 45.81 44.65 43.85 43.45 42.64 42.01 41.51 41.10 40.12 39.67 39.55 39.97 39.80
57.43 57.58 57.81 57.88 57.94 58.08 58.20 58.32 58.32 58.22 58.09 58.13 57.95 57.59 57.15 56.76 56.60 56.58 56.72 56.57 56.01 55.12 54.41 54.37 54.02 53.16 51.96 50.66 49.56 48.22 47.15 46.87 48.08 48.63 48.41 47.58 45.48 45.58 46.74 48.21 48.81 46.91 43.63 40.32 41.11 41.99 42.79 43.31 43.05 42.43 41.73 41.14 43.76 46.42 47.79 46.49 45.23 44.22 43.41 42.72 41.64 40.88 40.37 39.78 39.21 39.43 39.90 39.93 40.03
56.78 56.96 57.21 57.42 57.64 57.81 58.09 58.10 57.93 57.60 57.36 57.06 56.95 56.77 56.58 56.39 56.44 56.44 56.35 55.96 55.25 54.27 53.48 53.42 52.96 51.81 50.45 49.40 48.86 48.32 48.01 47.79 48.03 48.09 48.18 48.63 49.02 49.47 49.70 49.65 50.03 47.72 44.54 42.16 42.66 43.24 43.85 44.34 43.77 42.98 42.02 41.02 42.82 45.14 46.59 45.51 43.95 42.84 41.76 40.92 40.29 39.78 39.38 39.21 39.71 39.94 40.20 40.33 40.38
56.00 56.23 56.57 56.77 57.00 57.30 57.34 57.27 57.10 56.74 56.36 55.93 55.81 55.86 55.95 56.05 55.97 55.89 55.43 54.66 53.91 53.47 53.24 52.98 52.30 51.14 49.88 49.15 48.88 48.80 48.67 48.55 48.05 47.11 46.66 47.69 49.31 50.17 50.26 49.99 50.12 47.24 44.12 43.48 43.84 43.94 44.07 44.03 43.55 42.82 41.86 40.46 42.23 44.05 45.00 44.21 42.72 41.28 40.01 39.25 39.22 39.12 39.19 39.66 40.21 40.40 40.58 40.58 40.51
55.35 55.59 55.91 56.12 56.23 56.29 56.20 56.17 55.86 55.43 55.14 54.90 54.78 54.98 55.17 55.38 55.20 54.67 53.43 51.43 51.26 51.48 51.92 52.00 51.58 50.98 50.26 49.74 49.89 49.45 48.51 47.06 47.33 47.56 48.10 48.86 49.76 49.94 49.49 49.13 46.57 43.09 40.71 41.10 41.78 42.27 42.45 42.55 42.21 41.74 40.78 39.29 41.15 42.41 42.96 42.67 41.64 40.46 39.64 39.41 39.56 39.77 40.08 40.23 40.31 40.16 39.87 39.68 39.39
55.03 55.20 55.28 55.49 55.49 55.31 55.12 54.70 54.41 54.11 53.95 53.85 53.55 53.61 53.94 54.36 54.09 52.61 50.42 47.55 48.26 49.20 49.86 49.59 49.81 49.77 49.74 49.98 50.21 49.59 48.42 47.06 46.84 47.02 47.60 48.77 49.22 48.63 47.02 44.82 40.87 38.41 37.51 38.17 38.92 39.75 40.31 40.59 40.43 40.13 39.57 38.85 40.35 41.48 42.12 42.00 40.96 40.27 39.91 39.75 39.33 39.02 38.76 38.45 38.13 37.63 37.32 37.24 37.11
54.90 55.06 54.94 54.90 54.65 54.46 54.10 53.57 53.06 52.80 52.61 52.15 51.90 52.00 52.26 52.66 51.74 49.67 47.28 45.41 46.75 47.51 47.68 47.42 48.17 48.49 48.58 48.90 48.77 48.23 47.69 47.69 45.98 45.26 45.45 46.66 47.29 46.30 43.71 40.11 37.92 36.90 36.79 37.35 37.86 38.50 38.95 39.23 39.25 39.00 39.18 39.94 40.92 41.60 41.76 41.61 40.51 39.44 38.59 37.80 36.65 36.04 35.75 35.52 35.32 35.29 35.28 35.53 35.85
54.59 54.75 54.66 54.37 54.02 53.56 53.17 52.45 51.86 51.88 51.77 50.93 50.86 50.83 50.66 50.30 48.88 47.02 45.55 45.33 46.75 46.71 46.04 45.82 46.66 47.06 47.46 47.83 47.15 46.52 46.30 46.97 45.27 43.79 42.99 43.26 43.84 42.73 40.35 37.21 36.52 35.88 35.83 37.07 37.57 38.07 38.47 38.67 38.61 38.81 39.43 40.64 41.19 41.29 40.78 39.86 38.36 37.07 35.87 34.92 34.50 34.37 34.60 34.83 34.86 34.84 34.79 34.70 34.59
54.09 54.26 54.18 53.81 53.38 52.81 52.21 51.44 51.08 51.15 50.96 50.01 49.95 49.73 49.29 48.56 46.93 45.42 44.44 44.43 46.13 45.64 44.45 43.92 44.31 44.92 45.81 46.53 44.73 43.11 42.32 42.85 42.32 41.44 40.52 40.03 40.02 39.20 37.74 35.72 35.36 35.14 35.43 36.60 37.17 37.64 38.12 38.50 38.57 38.75 39.32 40.23 40.58 40.07 39.03 37.72 36.36 35.28 34.46 33.77 33.41 33.46 33.58 34.06 34.20 34.15 33.97 33.87 33.65
53.27 53.45 53.53 53.29 52.59 51.84 51.11 50.69 50.24 50.01 49.69 49.16 49.32 49.06 48.43 47.72 45.86 44.48 43.59 43.11 44.06 43.73 42.95 42.22 41.92 42.83 43.71 43.97 41.83 39.85 38.54 38.52 38.38 38.09 37.74 37.20 36.63 35.88 34.94 33.90 33.72 34.02 34.78 35.96 36.46 36.88 37.35 37.81 37.91 38.04 38.16 38.23 38.82 38.37 37.43 36.26 35.03 34.17 33.42 32.65 32.22 32.01 32.22 32.72 33.10 33.38 33.41 33.44 33.67
52.30 52.60 52.70 52.47 51.73 51.03 50.45 49.91 49.30 48.84 48.54 48.69 48.88 48.63 47.85 46.48 44.77 43.83 43.25 42.85 42.89 42.45 41.74 40.87 40.40 40.99 41.58 41.21 40.24 38.74 37.45 36.72 36.27 35.79 35.20 34.55 34.32 33.91 33.22 31.99 32.22 32.79 33.70 35.23 35.87 36.27 36.46 36.65 36.61 36.70 36.64 36.16 36.74 36.67 36.18 35.38 34.25 33.27 32.45 31.96 31.42 31.05 30.77 30.98 31.49 31.73 32.01 32.23 32.62
51.63 51.72 51.69 51.38 50.93 50.58 50.01 49.22 48.22 47.66 47.52 48.05 48.07 47.65 46.52 45.04 44.34 43.85 43.44 42.96 42.06 41.34 40.51 39.58 39.17 39.31 39.46 39.07 38.24 36.81 35.20 33.95 33.26 32.76 32.47 32.12 32.17 32.22 31.89 30.78 31.08 31.66 32.69 34.31 35.30 35.65 35.87 36.13 36.13 36.04 35.63 34.73 35.18 35.30 35.07 34.50 33.37 32.36 31.57 31.25 30.79 30.20 29.58 29.23 29.37 29.46 29.65 29.77 30.22
MSLP
1014.21 1014.29 1014.41 1014.57 1014.69 1014.81 1014.93 1014.97 1015.01 1015.13 1015.25 1015.37 1015.49 1015.57 1015.65 1015.77 1015.85 1015.93 1016.01 1016.13 1016.25 1016.29 1016.37 1016.41 1016.49 1016.57 1016.73 1016.93 1017.13 1017.29 1017.45 1017.61 1017.77 1017.89 1017.97 1018.09 1018.17 1018.25 1018.37 1018.53 1018.65 1018.81 1018.97 1019.05 1019.21 1019.33 1019.49 1019.57 1019.69 1019.77 1019.89 1020.05 1020.21 1020.33 1020.49 1020.57 1020.73 1020.89 1021.05 1021.13 1021.29 1021.41 1021.57 1021.73 1021.85 1021.97 1022.09 1022.17 1022.21
1013.97 1014.09 1014.21 1014.37 1014.53 1014.65 1014.73 1014.81 1014.89 1014.97 1015.05 1015.09 1015.17 1015.25 1015.33 1015.45 1015.53 1015.57 1015.65 1015.77 1015.81 1015.93 1016.05 1016.13 1016.25 1016.41 1016.57 1016.73 1016.85 1017.01 1017.17 1017.37 1017.53 1017.69 1017.81 1017.93 1017.97 1018.09 1018.21 1018.41 1018.53 1018.65 1018.81 1018.97 1019.13 1019.25 1019.37 1019.53 1019.65 1019.73 1019.85 1019.97 1020.17 1020.33 1020.45 1020.53 1020.69 1020.81 1021.01 1021.13 1021.21 1021.33 1021.49 1021.65 1021.69 1021.77 1021.89 1022.01 1022.13
1013.77 1013.89 1014.01 1014.17 1014.29 1014.41 1014.53 1014.57 1014.65 1014.73 1014.81 1014.89 1014.93 1014.97 1015.09 1015.17 1015.25 1015.25 1015.29 1015.37 1015.45 1015.65 1015.85 1015.97 1016.05 1016.17 1016.37 1016.53 1016.65 1016.81 1016.97 1017.13 1017.25 1017.45 1017.61 1017.73 1017.85 1017.93 1018.09 1018.21 1018.37 1018.53 1018.65 1018.81 1018.97 1019.09 1019.25 1019.41 1019.53 1019.69 1019.73 1019.85 1020.05 1020.21 1020.33 1020.45 1020.61 1020.77 1020.93 1021.01 1021.13 1021.25 1021.37 1021.45 1021.53 1021.69 1021.85 1021.97 1022.05
1013.53 1013.69 1013.81 1013.89 1014.01 1014.09 1014.13 1014.21 1014.29 1014.41 1014.53 1014.65 1014.73 1014.81 1014.85 1014.97 1014.97 1014.97 1015.01 1015.13 1015.25 1015.41 1015.53 1015.61 1015.73 1015.93 1016.13 1016.29 1016.49 1016.61 1016.73 1016.85 1017.05 1017.25 1017.41 1017.53 1017.65 1017.77 1017.89 1018.01 1018.21 1018.33 1018.45 1018.57 1018.77 1018.89 1019.05 1019.25 1019.41 1019.53 1019.61 1019.69 1019.85 1020.01 1020.13 1020.33 1020.53 1020.69 1020.77 1020.85 1020.97 1021.13 1021.25 1021.29 1021.45 1021.57 1021.73 1021.89 1022.01
1013.25 1013.33 1013.41 1013.49 1013.61 1013.69 1013.77 1013.85 1013.97 1014.13 1014.25 1014.37 1014.53 1014.61 1014.65 1014.65 1014.73 1014.81 1014.85 1014.97 1015.01 1015.09 1015.13 1015.25 1015.45 1015.65 1015.85 1016.05 1016.25 1016.41 1016.57 1016.69 1016.93 1017.09 1017.25 1017.37 1017.49 1017.61 1017.73 1017.85 1018.05 1018.13 1018.25 1018.41 1018.57 1018.73 1018.89 1019.13 1019.25 1019.37 1019.45 1019.53 1019.69 1019.81 1019.97 1020.17 1020.41 1020.53 1020.65 1020.73 1020.85 1020.97 1021.09 1021.21 1021.37 1021.53 1021.65 1021.81 1021.93
1012.89 1012.97 1013.05 1013.13 1013.25 1013.41 1013.53 1013.65 1013.77 1013.89 1014.01 1014.13 1014.25 1014.37 1014.41 1014.41 1014.45 1014.53 1014.61 1014.61 1014.61 1014.73 1014.93 1015.13 1015.25 1015.45 1015.65 1015.85 1016.13 1016.29 1016.45 1016.61 1016.73 1016.89 1017.09 1017.21 1017.33 1017.49 1017.69 1017.81 1017.85 1017.97 1018.13 1018.25 1018.41 1018.57 1018.77 1018.97 1019.13 1019.21 1019.29 1019.41 1019.53 1019.69 1019.89 1020.09 1020.33 1020.49 1020.61 1020.73 1020.81 1020.89 1020.97 1021.13 1021.25 1021.41 1021.53 1021.69 1021.85
1012.53 1012.65 1012.73 1012.85 1013.01 1013.17 1013.33 1013.41 1013.53 1013.69 1013.81 1013.89 1013.97 1014.05 1014.05 1014.05 1014.13 1014.17 1014.25 1014.29 1014.41 1014.57 1014.81 1015.01 1015.13 1015.29 1015.49 1015.69 1015.93 1016.13 1016.29 1016.49 1016.61 1016.77 1016.97 1017.13 1017.29 1017.45 1017.57 1017.69 1017.77 1017.89 1018.01 1018.17 1018.33 1018.49 1018.69 1018.81 1018.97 1019.05 1019.13 1019.29 1019.45 1019.65 1019.85 1020.01 1020.17 1020.37 1020.53 1020.65 1020.69 1020.81 1020.93 1021.09 1021.17 1021.29 1021.49 1021.65 1021.73
1012.21 1012.33 1012.45 1012.53 1012.69 1012.89 1013.05 1013.17 1013.33 1013.49 1013.57 1013.65 1013.69 1013.69 1013.69 1013.73 1013.81 1013.89 1013.97 1014.13 1014.25 1014.41 1014.57 1014.77 1014.97 1015.09 1015.25 1015.49 1015.69 1015.93 1016.13 1016.37 1016.57 1016.77 1016.97 1017.17 1017.33 1017.41 1017.53 1017.61 1017.73 1017.85 1017.97 1018.05 1018.25 1018.41 1018.53 1018.69 1018.77 1018.85 1018.97 1019.17 1019.37 1019.53 1019.69 1019.85 1020.01 1020.21 1020.37 1020.49 1020.57 1020.69 1020.81 1020.97 1021.09 1021.21 1021.33 1021.53 1021.65
1011.93 1012.01 1012.13 1012.29 1012.45 1012.61 1012.77 1012.93 1013.09 1013.25 1013.29 1013.33 1013.29 1013.29 1013.41 1013.49 1013.57 1013.69 1013.85 1013.97 1014.09 1014.21 1014.37 1014.53 1014.69 1014.89 1015.13 1015.33 1015.53 1015.73 1015.97 1016.21 1016.49 1016.73 1016.97 1017.09 1017.17 1017.29 1017.41 1017.53 1017.69 1017.81 1017.85 1017.97 1018.13 1018.25 1018.41 1018.53 1018.61 1018.69 1018.81 1018.97 1019.13 1019.33 1019.53 1019.69 1019.85 1020.01 1020.17 1020.29 1020.45 1020.65 1020.77 1020.85 1021.01 1021.13 1021.25 1021.37 1021.53
1011.57 1011.69 1011.85 1012.09 1012.21 1012.37 1012.53 1012.73 1012.89 1012.97 1013.01 1013.05 1013.01 1013.05 1013.17 1013.33 1013.41 1013.53 1013.57 1013.69 1013.85 1014.09 1014.25 1014.37 1014.53 1014.77 1015.01 1015.21 1015.37 1015.53 1015.81 1016.05 1016.29 1016.53 1016.73 1016.81 1016.97 1017.09 1017.21 1017.29 1017.45 1017.53 1017.69 1017.81 1017.93 1018.09 1018.25 1018.41 1018.49 1018.53 1018.65 1018.81 1018.93 1019.13 1019.29 1019.53 1019.69 1019.85 1020.01 1020.17 1020.41 1020.57 1020.73 1020.85 1020.93 1021.01 1021.13 1021.21 1021.29
1011.25 1011.37 1011.57 1011.77 1011.89 1012.13 1012.33 1012.53 1012.69 1012.77 1012.81 1012.81 1012.81 1012.89 1013.01 1013.13 1013.25 1013.29 1013.41 1013.53 1013.73 1013.89 1013.97 1014.09 1014.33 1014.57 1014.81 1014.97 1015.13 1015.33 1015.57 1015.85 1016.09 1016.25 1016.41 1016.53 1016.69 1016.81 1016.93 1016.97 1017.09 1017.25 1017.37 1017.53 1017.69 1017.85 1018.05 1018.21 1018.29 1018.41 1018.49 1018.65 1018.77 1018.93 1019.13 1019.33 1019.49 1019.69 1019.85 1020.05 1020.25 1020.45 1020.61 1020.73 1020.81 1020.85 1020.93 1020.97 1020.97
1010.97 1011.09 1011.25 1011.45 1011.65 1011.89 1012.13 1012.29 1012.41 1012.49 1012.53 1012.53 1012.57 1012.65 1012.77 1012.85 1012.97 1013.13 1013.25 1013.45 1013.57 1013.61 1013.69 1013.85 1014.13 1014.37 1014.53 1014.73 1014.93 1015.13 1015.37 1015.57 1015.85 1016.01 1016.17 1016.25 1016.37 1016.53 1016.69 1016.73 1016.77 1016.89 1017.05 1017.21 1017.37 1017.53 1017.73 1017.89 1018.01 1018.17 1018.29 1018.41 1018.57 1018.73 1018.89 1019.09 1019.29 1019.53 1019.69 1019.85 1020.09 1020.25 1020.41 1020.53 1020.65 1020.73 1020.73 1020.69 1020.69
1010.69 1010.85 1011.05 1011.25 1011.45 1011.69 1011.85 1012.01 1012.09 1012.17 1012.25 1012.25 1012.33 1012.41 1012.45 1012.53 1012.73 1012.97 1013.13 1013.29 1013.29 1013.33 1013.45 1013.69 1013.89 1014.09 1014.25 1014.49 1014.69 1014.93 1015.13 1015.33 1015.53 1015.69 1015.85 1015.89 1015.97 1016.17 1016.41 1016.53 1016.57 1016.65 1016.77 1016.89 1017.05 1017.21 1017.37 1017.53 1017.69 1017.85 1018.05 1018.21 1018.33 1018.53 1018.69 1018.81 1019.05 1019.25 1019.49 1019.69 1019.93 1020.09 1020.21 1020.33 1020.53 1020.61 1020.65 1020.57 1020.53
1010.45 1010.65 1010.81 1010.97 1011.21 1011.41 1011.61 1011.73 1011.81 1011.85 1011.93 1011.97 1012.01 1012.09 1012.21 1012.29 1012.49 1012.69 1012.89 1012.97 1013.01 1013.09 1013.25 1013.49 1013.69 1013.85 1013.97 1014.21 1014.45 1014.69 1014.89 1015.01 1015.21 1015.37 1015.49 1015.57 1015.65 1015.85 1016.09 1016.25 1016.33 1016.41 1016.49 1016.61 1016.73 1016.89 1017.05 1017.13 1017.29 1017.53 1017.73 1017.93 1018.09 1018.25 1018.45 1018.57 1018.77 1018.97 1019.25 1019.49 1019.69 1019.85 1019.97 1020.09 1020.21 1020.29 1020.41 1020.41 1020.37
1010.17 1010.37 1010.53 1010.69 1010.93 1011.13 1011.29 1011.41 1011.49 1011.53 1011.57 1011.69 1011.73 1011.85 1011.97 1012.09 1012.25 1012.41 1012.61 1012.69 1012.77 1012.89 1013.05 1013.25 1013.49 1013.65 1013.77 1013.97 1014.17 1014.41 1014.61 1014.77 1014.93 1015.09 1015.25 1015.29 1015.45 1015.69 1015.85 1015.97 1016.09 1016.17 1016.29 1016.41 1016.53 1016.61 1016.73 1016.81 1016.97 1017.21 1017.41 1017.65 1017.85 1018.01 1018.21 1018.41 1018.53 1018.73 1018.97 1019.17 1019.37 1019.53 1019.61 1019.65 1019.73 1019.85 1019.97 1020.01 1020.13
1009.85 1010.01 1010.21 1010.41 1010.61 1010.81 1010.93 1011.05 1011.13 1011.21 1011.25 1011.37 1011.45 1011.57 1011.73 1011.85 1011.97 1012.17 1012.33 1012.41 1012.53 1012.69 1012.85 1013.05 1013.21 1013.41 1013.57 1013.81 1013.97 1014.17 1014.41 1014.57 1014.77 1014.97 1015.09 1015.13 1015.25 1015.45 1015.69 1015.73 1015.85 1015.97 1016.13 1016.25 1016.29 1016.41 1016.49 1016.61 1016.77 1016.97 1017.21 1017.41 1017.61 1017.81 1017.97 1018.17 1018.37 1018.53 1018.73 1018.97 1019.17 1019.25 1019.25 1019.25 1019.41 1019.53 1019.65 1019.73 1019.85
1009.49 1009.65 1009.85 1010.09 1010.29 1010.41 1010.53 1010.65 1010.77 1010.85 1010.97 1011.05 1011.17 1011.37 1011.53 1011.65 1011.69 1011.89 1012.09 1012.21 1012.33 1012.49 1012.65 1012.77 1012.89 1013.13 1013.37 1013.57 1013.73 1013.97 1014.17 1014.33 1014.49 1014.65 1014.73 1014.81 1014.89 1015.09 1015.29 1015.41 1015.57 1015.77 1015.97 1016.09 1016.13 1016.21 1016.29 1016.41 1016.61 1016.81 1017.01 1017.21 1017.41 1017.57 1017.77 1017.97 1018.13 1018.33 1018.57 1018.85 1018.97 1018.97 1018.97 1019.05 1019.17 1019.29 1019.41 1019.53 1019.61
1009.09 1009.25 1009.53 1009.73 1009.93 1010.09 1010.17 1010.29 1010.41 1010.53 1010.61 1010.73 1010.89 1011.09 1011.25 1011.41 1011.49 1011.61 1011.73 1011.89 1012.05 1012.25 1012.41 1012.53 1012.69 1012.85 1013.01 1013.21 1013.41 1013.61 1013.85 1013.97 1014.09 1014.13 1014.21 1014.29 1014.49 1014.69 1014.93 1015.09 1015.25 1015.45 1015.69 1015.85 1015.89 1015.97 1016.05 1016.21 1016.41 1016.65 1016.81 1017.01 1017.17 1017.37 1017.53 1017.69 1017.85 1018.13 1018.41 1018.65 1018.69 1018.73 1018.77 1018.81 1018.93 1019.05 1019.17 1019.33 1019.41
1008.73 1008.97 1009.25 1009.45 1009.57 1009.73 1009.85 1010.01 1010.13 1010.25 1010.33 1010.41 1010.61 1010.77 1010.93 1011.05 1011.17 1011.25 1011.41 1011.57 1011.77 1011.97 1012.25 1012.37 1012.45 1012.53 1012.65 1012.81 1013.01 1013.25 1013.41 1013.53 1013.61 1013.69 1013.81 1013.97 1014.17 1014.41 1014.57 1014.69 1014.85 1015.09 1015.25 1015.45 1015.53 1015.61 1015.77 1015.97 1016.25 1016.49 1016.69 1016.89 1017.05 1017.21 1017.33 1017.45 1017.57 1017.81 1018.09 1018.37 1018.45 1018.53 1018.57 1018.65 1018.73 1018.81 1018.93 1019.01 1019.13
1008.45 1008.73 1008.97 1009.13 1009.29 1009.45 1009.61 1009.73 1009.85 1009.97 1010.01 1010.13 1010.25 1010.41 1010.49 1010.61 1010.77 1010.93 1011.09 1011.21 1011.41 1011.65 1011.85 1011.97 1012.01 1012.13 1012.25 1012.49 1012.73 1012.93 1013.01 1013.05 1013.17 1013.33 1013.53 1013.69 1013.93 1014.09 1014.21 1014.37 1014.53 1014.69 1014.85 1015.09 1015.21 1015.33 1015.53 1015.77 1016.05 1016.25 1016.49 1016.69 1016.89 1017.05 1017.17 1017.29 1017.37 1017.53 1017.73 1018.05 1018.21 1018.29 1018.33 1018.41 1018.49 1018.57 1018.65 1018.69 1018.81
1008.29 1008.53 1008.73 1008.93 1009.09 1009.25 1009.37 1009.49 1009.57 1009.69 1009.73 1009.81 1009.89 1009.97 1010.01 1010.13 1010.37 1010.53 1010.65 1010.81 1011.05 1011.25 1011.41 1011.49 1011.57 1011.73 1011.97 1012.25 1012.49 1012.65 1012.69 1012.69 1012.85 1013.09 1013.25 1013.41 1013.57 1013.73 1013.85 1014.05 1014.25 1014.45 1014.61 1014.77 1014.93 1015.13 1015.29 1015.57 1015.85 1016.13 1016.33 1016.53 1016.69 1016.85 1017.01 1017.17 1017.29 1017.41 1017.57 1017.73 1017.93 1017.97 1018.05 1018.13 1018.21 1018.29 1018.37 1018.45 1018.53
1008.17 1008.41 1008.57 1008.77 1008.89 1009.05 1009.13 1009.17 1009.25 1009.25 1009.29 1009.33 1009.37 1009.41 1009.57 1009.77 1009.93 1010.05 1010.21 1010.49 1010.73 1010.93 1011.01 1011.09 1011.21 1011.41 1011.69 1011.97 1012.21 1012.33 1012.41 1012.49 1012.69 1012.81 1012.97 1013.13 1013.25 1013.41 1013.57 1013.81 1014.05 1014.25 1014.41 1014.61 1014.77 1014.97 1015.17 1015.41 1015.69 1015.93 1016.13 1016.37 1016.53 1016.69 1016.85 1017.05 1017.25 1017.37 1017.49 1017.61 1017.69 1017.73 1017.77 1017.85 1017.93 1018.01 1018.13 1018.21 1018.29
1008.17 1008.41 1008.53 1008.69 1008.81 1008.81 1008.85 1008.81 1008.77 1008.73 1008.77 1008.77 1008.81 1008.97 1009.17 1009.33 1009.49 1009.65 1009.89 1010.17 1010.41 1010.53 1010.57 1010.69 1010.89 1011.13 1011.41 1011.69 1011.89 1012.09 1012.25 1012.41 1012.53 1012.69 1012.77 1012.89 1013.01 1013.17 1013.37 1013.57 1013.85 1014.01 1014.21 1014.37 1014.53 1014.77 1015.05 1015.33 1015.53 1015.73 1015.97 1016.17 1016.37 1016.53 1016.73 1016.93 1017.05 1017.25 1017.41 1017.49 1017.53 1017.57 1017.61 1017.65 1017.73 1017.81 1017.89 1017.97 1018.09
1008.05 1008.37 1008.57 1008.69 1008.61 1008.53 1008.41 1008.29 1008.25 1008.21 1008.17 1008.17 1008.33 1008.53 1008.77 1008.97 1009.13 1009.41 1009.65 1009.85 1010.01 1010.13 1010.21 1010.33 1010.49 1010.81 1011.13 1011.41 1011.69 1011.97 1012.21 1012.37 1012.49 1012.53 1012.61 1012.69 1012.81 1012.97 1013.13 1013.37 1013.57 1013.77 1013.97 1014.13 1014.37 1014.57 1014.81 1015.13 1015.41 1015.57 1015.77 1015.97 1016.13 1016.33 1016.49 1016.69 1016.85 1017.05 1017.25 1017.37 1017.45 1017.49 1017.49 1017.53 1017.53 1017.61 1017.69 1017.77 1017.85
1007.25 1007.73 1007.97 1007.97 1007.77 1007.57 1007.53 1007.65 1007.69 1007.69 1007.69 1007.85 1007.97 1008.17 1008.41 1008.69 1008.85 1009.13 1009.37 1009.53 1009.69 1009.77 1009.85 1010.01 1010.21 1010.53 1010.93 1011.29 1011.61 1011.85 1012.01 1012.21 1012.29 1012.37 1012.45 1012.53 1012.65 1012.81 1013.01 1013.21 1013.37 1013.53 1013.73 1013.97 1014.25 1014.41 1014.61 1014.85 1015.13 1015.41 1015.57 1015.77 1015.97 1016.13 1016.25 1016.41 1016.69 1016.85 1017.01 1017.13 1017.25 1017.29 1017.37 1017.41 1017.45 1017.49 1017.53 1017.57 1017.69
1005.89 1006.21 1006.37 1006.37 1006.49 1006.69 1006.97 1007.17 1007.25 1007.29 1007.41 1007.57 1007.77 1007.97 1008.17 1008.37 1008.61 1008.85 1009.09 1009.29 1009.41 1009.53 1009.61 1009.85 1010.05 1010.37 1010.69 1011.05 1011.37 1011.61 1011.81 1011.93 1012.01 1012.09 1012.21 1012.37 1012.53 1012.69 1012.89 1013.09 1013.25 1013.41 1013.65 1013.89 1014.13 1014.29 1014.45 1014.65 1014.89 1015.13 1015.37 1015.49 1015.69 1015.89 1016.09 1016.25 1016.41 1016.61 1016.77 1016.89 1016.97 1017.09 1017.17 1017.25 1017.25 1017.33 1017.41 1017.45 1017.49
1005.29 1005.41 1005.57 1005.81 1006.13 1006.49 1006.69 1006.77 1006.85 1006.97 1007.13 1007.33 1007.53 1007.69 1007.89 1008.09 1008.37 1008.69 1008.93 1009.05 1009.13 1009.29 1009.49 1009.69 1009.97 1010.25 1010.57 1010.85 1011.09 1011.33 1011.53 1011.69 1011.77 1011.85 1011.93 1012.13 1012.37 1012.57 1012.77 1012.89 1013.09 1013.25 1013.49 1013.73 1013.97 1014.13 1014.25 1014.45 1014.69 1014.93 1015.09 1015.25 1015.41 1015.65 1015.85 1016.09 1016.25 1016.41 1016.53 1016.69 1016.73 1016.81 1016.93 1016.97 1017.05 1017.13 1017.25 1017.29 1017.37
1005.37 1005.45 1005.57 1005.81 1006.01 1006.13 1006.25 1006.37 1006.53 1006.69 1006.81 1006.97 1007.21 1007.41 1007.65 1007.85 1008.13 1008.37 1008.61 1008.81 1008.97 1009.17 1009.41 1009.61 1009.85 1010.13 1010.45 1010.69 1010.89 1011.01 1011.21 1011.41 1011.57 1011.73 1011.85 1011.97 1012.21 1012.41 1012.61 1012.77 1012.93 1013.13 1013.33 1013.53 1013.69 1013.89 1014.09 1014.25 1014.45 1014.65 1014.81 1014.97 1015.25 1015.45 1015.69 1015.85 1016.09 1016.25 1016.37 1016.41 1016.53 1016.57 1016.69 1016.69 1016.77 1016.93 1017.09 1017.17 1017.29
1005.09 1005.21 1005.37 1005.53 1005.69 1005.77 1005.89 1006.09 1006.29 1006.41 1006.49 1006.65 1006.85 1007.13 1007.45 1007.73 1007.93 1008.13 1008.29 1008.53 1008.77 1008.97 1009.17 1009.41 1009.73 1010.13 1010.41 1010.57 1010.73 1010.85 1011.01 1011.25 1011.45 1011.65 1011.81 1011.97 1012.13 1012.33 1012.49 1012.65 1012.81 1012.97 1013.17 1013.41 1013.53 1013.73 1013.93 1014.13 1014.29 1014.45 1014.57 1014.73 1015.01 1015.25 1015.45 1015.61 1015.77 1015.97 1016.13 1016.21 1016.25 1016.37 1016.45 1016.53 1016.61 1016.73 1016.89 1017.05 1017.25
1004.69 1004.85 1005.05 1005.21 1005.29 1005.49 1005.69 1005.85 1005.97 1006.09 1006.21 1006.41 1006.65 1006.93 1007.25 1007.53 1007.73 1007.89 1008.05 1008.25 1008.41 1008.65 1008.81 1009.13 1009.61 1010.01 1010.25 1010.41 1010.61 1010.81 1011.05 1011.21 1011.41 1011.61 1011.85 1011.97 1012.13 1012.29 1012.45 1012.61 1012.77 1012.97 1013.13 1013.37 1013.49 1013.69 1013.89 1014.05 1014.17 1014.33 1014.49 1014.65 1014.85 1015.05 1015.17 1015.33 1015.49 1015.69 1015.85 1015.97 1016.05 1016.13 1016.25 1016.33 1016.45 1016.61 1016.81 1016.97 1017.25
1004.37 1004.53 1004.69 1004.85 1005.05 1005.25 1005.41 1005.49 1005.65 1005.85 1006.05 1006.25 1006.53 1006.81 1007.05 1007.25 1007.45 1007.61 1007.73 1007.89 1008.13 1008.33 1008.57 1008.97 1009.41 1009.77 1010.01 1010.25 1010.53 1010.85 1011.09 1011.25 1011.41 1011.65 1011.85 1012.05 1012.25 1012.37 1012.49 1012.65 1012.77 1012.93 1013.13 1013.41 1013.53 1013.69 1013.85 1013.97 1014.09 1014.25 1014.41 1014.57 1014.69 1014.81 1014.93 1015.01 1015.21 1015.37 1015.53 1015.65 1015.81 1015.89 1016.01 1016.21 1016.37 1016.53 1016.69 1016.93 1017.21
1004.13 1004.29 1004.53 1004.69 1004.81 1004.97 1005.05 1005.21 1005.41 1005.69 1005.93 1006.21 1006.41 1006.65 1006.85 1007.01 1007.13 1007.29 1007.49 1007.69 1007.97 1008.29 1008.65 1009.01 1009.33 1009.65 1009.93 1010.25 1010.53 1010.81 1011.05 1011.29 1011.53 1011.77 1011.97 1012.13 1012.29 1012.41 1012.53 1012.69 1012.77 1012.89 1013.09 1013.25 1013.45 1013.57 1013.69 1013.85 1014.01 1014.17 1014.33 1014.45 1014.53 1014.61 1014.65 1014.81 1014.97 1015.17 1015.29 1015.45 1015.57 1015.73 1015.93 1016.13 1016.33 1016.53 1016.69 1016.89 1017.13
1003.97 1004.17 1004.37 1004.53 1004.61 1004.69 1004.81 1005.01 1005.29 1005.53 1005.85 1006.13 1006.37 1006.53 1006.69 1006.85 1007.01 1007.25 1007.45 1007.69 1008.01 1008.37 1008.69 1008.97 1009.29 1009.69 1010.01 1010.33 1010.57 1010.81 1011.13 1011.37 1011.61 1011.85 1012.09 1012.25 1012.41 1012.53 1012.61 1012.69 1012.69 1012.77 1012.89 1013.01 1013.13 1013.25 1013.41 1013.61 1013.85 1013.97 1014.13 1014.25 1014.33 1014.41 1014.49 1014.69 1014.89 1015.13 1015.37 1015.53 1015.69 1015.85 1016.01 1016.21 1016.41 1016.57 1016.77 1016.97 1017.17
1003.85 1004.05 1004.25 1004.37 1004.41 1004.53 1004.73 1004.97 1005.25 1005.53 1005.81 1006.09 1006.33 1006.53 1006.69 1006.85 1007.13 1007.41 1007.61 1007.85 1008.13 1008.45 1008.77 1009.09 1009.41 1009.73 1010.09 1010.41 1010.61 1010.85 1011.17 1011.41 1011.57 1011.81 1011.97 1012.17 1012.37 1012.49 1012.53 1012.65 1012.69 1012.73 1012.81 1012.89 1012.97 1013.13 1013.25 1013.37 1013.53 1013.69 1013.85 1014.01 1014.21 1014.41 1014.57 1014.77 1015.05 1015.33 1015.61 1015.85 1016.01 1016.17 1016.25 1016.41 1016.61 1016.81 1016.97 1017.13 1017.29
1003.69 1003.89 1004.09 1004.21 1004.37 1004.53 1004.81 1005.05 1005.29 1005.61 1005.93 1006.17 1006.41 1006.61 1006.81 1007.05 1007.25 1007.53 1007.81 1008.09 1008.41 1008.69 1009.05 1009.33 1009.61 1009.93 1010.25 1010.45 1010.57 1010.81 1011.05 1011.25 1011.53 1011.69 1011.93 1012.13 1012.25 1012.37 1012.53 1012.69 1012.81 1012.89 1012.97 1012.97 1013.01 1013.09 1013.13 1013.25 1013.33 1013.49 1013.69 1014.01 1014.29 1014.53 1014.69 1015.01 1015.37 1015.69 1015.89 1016.13 1016.33 1016.53 1016.65 1016.81 1016.97 1017.09 1017.21 1017.25 1017.41
1003.49 1003.73 1003.97 1004.13 1004.37 1004.65 1004.93 1005.21 1005.53 1005.77 1006.05 1006.33 1006.57 1006.81 1007.05 1007.25 1007.45 1007.69 1007.97 1008.29 1008.69 1009.09 1009.41 1009.65 1009.89 1010.21 1010.49 1010.61 1010.65 1010.77 1010.97 1011.21 1011.49 1011.73 1011.93 1012.09 1012.21 1012.37 1012.65 1012.93 1013.09 1013.17 1013.17 1013.13 1013.09 1013.05 1013.05 1013.09 1013.17 1013.37 1013.69 1014.01 1014.33 1014.61 1014.89 1015.25 1015.69 1016.01 1016.21 1016.41 1016.65 1016.81 1016.97 1017.09 1017.25 1017.29 1017.41 1017.49 1017.57
1003.29 1003.57 1003.89 1004.21 1004.45 1004.69 1004.97 1005.29 1005.61 1005.89 1006.13 1006.41 1006.69 1006.97 1007.21 1007.41 1007.65 1007.85 1008.09 1008.45 1008.97 1009.41 1009.73 1009.93 1010.13 1010.41 1010.61 1010.69 1010.77 1010.85 1010.97 1011.13 1011.41 1011.69 1011.93 1012.09 1012.25 1012.53 1012.89 1013.25 1013.45 1013.45 1013.41 1013.25 1013.13 1013.05 1013.01 1013.05 1013.13 1013.41 1013.69 1014.05 1014.41 1014.73 1015.13 1015.53 1015.97 1016.25 1016.49 1016.73 1016.97 1017.13 1017.25 1017.33 1017.41 1017.53 1017.61 1017.73 1017.89
1003.17 1003.45 1003.77 1004.13 1004.41 1004.69 1004.97 1005.33 1005.65 1005.89 1006.17 1006.49 1006.77 1006.97 1007.21 1007.45 1007.73 1007.97 1008.21 1008.49 1009.05 1009.57 1009.97 1010.17 1010.37 1010.49 1010.53 1010.69 1010.89 1011.09 1011.21 1011.33 1011.53 1011.73 1011.97 1012.21 1012.45 1012.73 1013.13 1013.53 1013.73 1013.73 1013.57 1013.41 1013.25 1013.13 1013.09 1013.13 1013.25 1013.45 1013.69 1014.05 1014.41 1014.81 1015.25 1015.69 1016.13 1016.41 1016.69 1016.97 1017.25 1017.41 1017.49 1017.57 1017.65 1017.77 1017.97 1018.13 1018.25
1003.09 1003.33 1003.65 1003.97 1004.33 1004.69 1004.97 1005.33 1005.65 1005.85 1006.13 1006.41 1006.73 1007.01 1007.25 1007.53 1007.85 1008.09 1008.29 1008.53 1009.01 1009.53 1009.89 1010.17 1010.41 1010.53 1010.53 1010.69 1010.97 1011.29 1011.57 1011.81 1011.93 1012.09 1012.25 1012.53 1012.85 1013.17 1013.53 1013.81 1013.97 1013.93 1013.81 1013.61 1013.41 1013.29 1013.29 1013.33 1013.45 1013.61 1013.85 1014.13 1014.53 1014.93 1015.33 1015.77 1016.13 1016.53 1016.81 1017.13 1017.41 1017.53 1017.69 1017.81 1017.89 1018.05 1018.25 1018.45 1018.53
1002.97 1003.25 1003.53 1003.89 1004.25 1004.61 1004.97 1005.33 1005.61 1005.81 1006.01 1006.25 1006.65 1007.05 1007.41 1007.69 1008.01 1008.21 1008.37 1008.69 1009.09 1009.49 1009.81 1010.09 1010.33 1010.53 1010.69 1010.81 1011.09 1011.49 1011.93 1012.25 1012.53 1012.69 1012.81 1013.09 1013.41 1013.69 1013.89 1014.01 1014.09 1014.09 1013.97 1013.85 1013.69 1013.61 1013.57 1013.65 1013.73 1013.89 1014.05 1014.33 1014.65 1014.97 1015.41 1015.77 1016.17 1016.57 1016.93 1017.21 1017.41 1017.61 1017.85 1018.01 1018.17 1018.33 1018.53 1018.69 1018.77
1002.97 1003.25 1003.53 1003.85 1004.21 1004.53 1004.93 1005.29 1005.57 1005.77 1005.97 1006.25 1006.65 1007.05 1007.45 1007.81 1008.13 1008.37 1008.61 1008.93 1009.25 1009.53 1009.85 1010.17 1010.49 1010.73 1010.97 1011.13 1011.41 1011.85 1012.33 1012.81 1013.21 1013.41 1013.49 1013.61 1013.85 1014.05 1014.17 1014.25 1014.25 1014.25 1014.25 1014.17 1014.05 1013.97 1013.97 1013.97 1014.09 1014.17 1014.29 1014.53 1014.81 1015.09 1015.41 1015.77 1016.21 1016.65 1016.97 1017.25 1017.41 1017.65 1017.89 1018.17 1018.41 1018.57 1018.69 1018.81 1018.93
Wind_Speed
10 10 9 8 8 8 8 7 7 6 6 7 8 8 8 8 8 8 8 7 7 8 8 8 8 8 8 9 10 11 12 12 12 11 11 11 11 11 10 9 9 8 9 9 8 7 7 7 6 5 5 4 5 4 4 4 4 5 5 5 5 5 6 7 7 7 7 6 5
12 11 10 9 8 8 7 7 7 6 6 7 8 8 8 8 8 8 8 9 8 8 8 7 8 8 9 10 11 11 12 12 12 12 11 11 11 11 10 9 9 9 9 9 9 8 7 7 6 6 5 4 4 4 4 4 4 5 6 6 5 5 5 6 6 7 7 6 5
12 12 11 10 10 9 9 9 8 9 9 8 8 8 8 8 8 8 8 9 9 8 8 7 8 9 10 11 10 11 11 12 12 12 11 11 11 11 10 9 9 9 9 9 9 8 7 7 6 6 5 5 5 5 5 4 4 5 6 7 5 4 4 5 5 5 5 4 4
13 13 12 12 13 13 12 10 10 11 10 9 8 8 8 8 7 8 8 8 8 8 8 8 9 9 10 10 10 11 11 11 12 12 12 11 11 11 11 10 10 10 10 9 9 9 8 7 6 6 5 6 6 6 5 4 5 5 5 5 4 4 4 4 4 4 4 4 4
14 14 14 13 15 14 13 12 12 11 10 9 8 8 8 8 8 7 7 7 8 9 9 10 9 9 9 10 11 11 11 11 12 11 11 12 11 11 11 11 10 10 10 10 10 9 9 8 6 6 6 6 5 5 5 5 5 5 4 4 4 4 4 4 3 3 3 3 3
15 15 15 14 15 14 13 12 12 12 10 9 9 10 10 9 8 8 9 10 10 10 10 10 9 9 9 10 10 11 11 11 11 11 11 11 11 11 11 11 11 10 10 9 9 9 9 8 6 6 6 5 5 4 4 5 5 5 4 4 4 3 3 4 3 3 3 3 3
16 16 16 15 15 14 13 13 12 11 11 10 11 12 12 12 11 11 12 11 9 9 8 8 9 9 9 10 10 10 10 10 10 10 10 10 10 10 10 11 11 10 10 9 9 9 8 8 6 6 5 5 4 4 4 5 5 5 5 5 4 3 3 4 3 3 3 4 5
16 16 16 16 15 15 14 14 13 12 11 11 12 14 15 14 14 13 12 10 9 8 8 7 9 10 10 10 10 10 10 10 10 9 9 9 9 10 10 11 10 10 10 10 9 9 9 8 6 6 6 5 4 4 4 6 6 6 6 6 4 3 3 3 3 3 4 5 5
15 16 16 16 15 15 15 14 14 13 13 13 14 15 15 14 14 14 12 11 10 9 8 8 9 10 10 10 10 10 10 10 9 9 9 9 10 10 10 10 11 11 11 10 10 10 9 7 7 6 5 5 5 5 5 6 7 7 7 6 4 3 2 2 3 4 5 6 6
15 15 15 15 15 15 15 14 14 14 15 15 15 15 14 13 13 13 12 10 9 8 8 9 9 9 10 10 10 10 10 9 9 9 9 10 11 11 12 11 12 12 11 10 10 10 9 8 7 7 6 5 6 7 7 8 8 8 7 4 4 3 3 3 4 4 5 6 7
17 16 15 14 15 15 14 14 14 14 15 15 16 15 14 13 13 13 12 9 8 9 10 9 9 9 10 10 10 10 10 9 9 9 10 11 12 12 13 13 13 13 13 12 10 10 9 8 8 8 8 7 7 7 8 8 8 8 7 5 5 5 5 4 5 5 6 7 9
17 16 15 14 15 14 14 14 14 14 15 16 16 15 14 13 13 13 12 10 11 11 11 10 10 10 10 9 9 9 9 10 9 10 11 12 12 13 14 14 14 14 14 13 12 10 9 10 10 10 10 9 7 7 8 9 9 8 8 7 6 6 6 6 6 6 7 8 9
18 16 15 15 14 15 15 15 14 14 15 16 16 15 14 14 13 12 12 12 13 12 10 9 10 10 10 9 9 9 10 10 10 10 11 12 13 14 14 14 14 14 14 13 12 11 11 11 12 12 12 11 9 8 8 10 9 9 9 8 8 7 7 8 8 8 8 9 9
18 17 16 15 15 15 15 15 14 14 15 16 16 15 15 14 13 12 12 13 13 12 11 9 9 9 9 10 10 10 11 11 11 11 12 13 12 13 14 14 14 14 14 12 12 13 13 13 13 13 13 12 11 10 9 10 10 10 10 10 9 9 10 11 11 11 10 10 11
18 18 17 16 16 15 14 15 14 14 15 16 16 15 14 13 12 12 12 13 13 12 11 10 9 9 9 10 11 11 12 11 11 11 12 13 12 12 13 14 14 14 13 12 12 13 14 14 14 13 13 12 12 11 10 10 10 10 10 10 11 12 13 14 14 13 12 12 12
19 19 18 17 16 16 15 15 13 13 14 15 15 14 13 13 12 11 12 13 12 11 11 11 10 9 9 10 11 12 12 11 11 11 12 13 12 13 13 14 13 13 13 13 13 13 13 13 12 12 12 12 12 11 11 10 10 10 10 11 12 14 15 15 15 14 13 12 12
19 19 19 18 17 17 16 16 14 14 14 15 14 14 13 12 12 11 12 12 11 11 11 12 11 10 10 10 11 11 12 11 11 12 14 14 14 14 14 14 13 13 13 14 14 14 13 12 11 11 11 12 11 11 11 11 10 10 11 12 14 14 15 14 14 13 12 12 13
20 19 19 18 18 18 18 17 16 15 15 15 15 13 13 12 13 12 12 12 12 12 12 13 12 11 11 11 11 11 12 12 13 14 15 15 14 14 14 15 14 14 14 15 15 15 14 13 11 10 10 11 11 11 11 11 11 11 12 14 14 14 14 13 13 13 12 12 13
19 19 18 18 18 18 18 18 17 17 16 16 15 14 14 14 14 14 13 12 12 13 13 13 13 13 13 13 12 12 12 13 15 15 15 14 13 13 14 15 14 14 15 15 15 15 14 12 12 11 10 10 10 10 10 11 11 12 13 14 14 14 13 13 13 13 13 13 13
18 17 17 17 17 17 17 17 17 17 17 16 16 16 16 16 15 15 15 14 13 13 14 15 15 15 14 13 13 13 13 13 14 14 14 13 13 14 15 15 14 14 14 15 14 14 13 12 12 11 11 11 11 11 11 11 12 13 13 13 13 13 14 13 13 13 13 12 13
16 15 15 15 16 16 17 17 17 17 18 17 18 18 17 17 16 16 16 15 14 14 15 16 16 15 14 13 13 14 14 12 12 13 13 12 13 14 14 14 13 13 13 13 13 13 12 11 11 11 11 11 11 11 11 10 11 12 12 12 12 13 13 13 13 13 12 12 12
12 12 13 14 14 15 16 17 18 19 19 20 20 19 18 17 17 17 16 15 14 15 16 16 16 15 14 13 14 14 14 12 11 11 12 12 13 13 13 12 12 12 12 12 12 12 11 10 10 10 11 10 11 10 10 10 10 11 12 12 12 12 13 12 12 12 12 12 12
10 10 10 11 13 15 17 19 20 21 21 21 21 20 19 18 17 16 15 14 15 16 16 15 14 14 14 14 14 14 13 11 11 11 11 11 12 12 12 12 12 13 13 12 11 10 10 9 9 9 10 9 10 10 10 10 10 11 12 12 12 12 12 11 11 11 11 11 11
12 12 12 13 17 20 21 22 23 23 22 21 20 19 19 17 16 15 15 15 16 17 16 14 14 13 14 13 13 13 12 12 12 12 11 11 12 12 12 11 12 12 11 9 9 9 9 7 7 8 8 8 9 9 10 10 11 11 11 12 12 12 11 10 10 10 11 11 11
19 20 22 23 25 25 24 24 24 23 21 18 18 18 18 17 16 15 15 15 16 17 17 16 14 13 12 11 12 12 12 13 13 13 12 12 11 11 11 10 10 9 8 7 8 9 9 8 6 6 6 7 8 8 9 9 11 11 11 11 12 11 11 10 10 10 10 11 10
24 26 28 29 26 24 23 23 23 21 19 17 17 17 17 17 16 15 15 15 16 17 17 16 14 12 10 10 11 12 12 13 13 13 13 12 11 11 10 9 8 7 6 7 8 9 9 9 8 7 6 7 7 7 8 9 10 11 12 12 11 11 11 10 10 10 10 10 10
22 23 23 23 22 21 21 22 21 20 19 17 17 17 17 17 15 15 15 15 15 15 15 14 12 10 8 8 10 12 12 11 11 12 12 11 11 11 10 9 8 6 6 8 9 10 10 10 9 9 8 7 7 7 8 8 10 11 12 12 11 11 11 11 11 11 10 10 10
18 18 18 19 19 20 21 21 20 20 19 18 18 17 16 16 16 16 16 15 15 14 13 12 10 7 6 6 9 11 11 10 9 9 9 9 10 10 10 9 7 7 7 9 10 11 11 10 11 11 10 8 7 8 8 9 9 10 10 11 11 11 11 11 11 10 10 9 8
18 18 18 19 20 20 20 20 19 19 19 19 18 16 15 15 15 16 16 15 15 14 12 10 7 6 5 6 8 9 9 9 9 7 7 7 7 8 8 8 7 7 8 10 11 12 12 11 11 12 12 11 9 8 8 9 9 9 9 9 10 10 10 10 9 9 8 8 7
19 19 19 20 20 20 20 19 19 19 18 17 16 15 15 15 15 16 16 16 16 14 12 9 7 7 7 8 8 7 7 7 7 6 6 6 6 6 6 7 6 6 7 9 10 11 11 11 11 11 12 12 11 9 9 9 9 9 9 9 9 10 10 10 9 8 7 6 6
19 19 19 20 20 20 19 19 18 17 16 14 14 14 14 14 16 16 16 15 13 11 9 8 8 9 9 8 7 7 6 6 5 5 4 4 4 4 4 4 4 4 5 7 8 8 9 9 10 11 12 14 13 11 10 10 10 9 9 9 9 10 9 8 8 7 7 7 7
18 18 18 18 19 19 19 18 17 16 14 14 13 13 13 14 14 13 12 11 10 8 8 8 8 8 8 7 7 6 6 6 5 5 5 4 4 3 2 2 2 3 4 5 6 7 9 10 12 13 15 17 15 13 12 10 9 9 8 8 8 8 8 6 6 6 7 8 8
16 16 16 17 18 18 17 16 15 14 13 12 12 12 12 13 11 10 9 8 7 7 8 8 8 8 8 7 6 6 6 6 6 5 5 4 3 2 2 2 3 3 3 5 7 9 11 13 14 16 18 20 16 13 11 9 7 6 5 4 4 5 5 5 5 6 6 7 6
14 14 15 15 16 15 14 13 12 11 11 11 11 11 11 10 9 8 6 5 4 5 5 6 7 7 7 6 6 6 6 5 5 4 4 3 2 2 2 2 1 1 1 4 7 10 12 14 16 17 18 18 13 9 7 6 4 4 4 4 5 5 5 6 6 6 6 6 6
14 14 14 14 13 13 11 10 9 9 9 9 9 9 8 7 7 6 4 3 3 2 2 3 5 5 6 5 5 5 5 5 4 4 3 2 2 1 0 2 4 5 4 2 7 10 13 15 16 16 14 12 8 6 5 5 5 6 6 7 7 8 8 8 7 7 6 6 7
13 14 14 13 12 11 9 8 8 8 8 8 7 6 5 4 4 4 4 4 3 3 3 4 5 5 5 4 4 5 5 5 5 4 3 3 2 2 2 5 6 7 6 2 5 9 11 13 13 12 11 8 6 5 5 6 6 7 8 9 9 9 9 9 8 8 8 8 8
13 13 13 12 11 10 9 8 8 8 8 8 6 5 4 4 4 4 4 5 4 4 5 5 6 6 5 4 4 4 4 5 5 5 5 5 5 5 5 6 6 6 6 4 2 4 7 9 10 11 10 7 6 6 7 7 7 8 9 10 10 9 9 9 9 10 10 10 10
12 12 12 11 10 10 9 9 9 9 9 8 5 5 5 5 4 4 4 4 4 5 6 5 5 5 5 6 6 6 7 6 6 6 7 7 7 7 7 7 5 5 6 7 7 8 8 9 10 10 9 7 8 8 8 8 8 8 9 9 9 9 9 8 8 9 11 12 13
11 11 11 11 11 10 10 9 9 9 9 8 6 5 6 6 4 4 4 5 5 6 6 6 4 4 5 8 9 9 10 10 9 9 9 9 9 9 9 8 6 6 7 10 11 12 12 12 11 11 10 9 9 9 8 9 9 9 9 9 8 8 8 8 8 8 10 13 15
10 10 11 11 11 11 11 10 9 8 8 7 7 7 7 6 6 5 6 6 6 6 6 6 6 6 7 9 11 11 12 12 11 11 11 11 11 11 9 7 7 8 9 11 13 14 14 14 14 13 11 9 9 9 8 9 10 9 9 8 8 8 8 7 7 7 8 10 12
9 10 11 11 12 12 11 11 9 8 7 7 8 8 7 7 7 7 7 7 7 7 7 8 9 9 10 10 12 13 14 14 12 11 11 11 11 10 9 8 8 9 10 12 14 15 15 15 15 14 12 9 9 8 8 9 10 10 9 8 8 7 7 7 7 6 6 7 7
Wind_Direction
201 198 196 194 196 199 202 206 203 200 198 197 200 201 201 202 205 206 205 205 207 210 211 212 211 211 209 204 200 200 202 205 205 206 206 206 208 207 205 202 199 198 199 203 201 199 198 199 199 200 200 198 200 202 202 191 177 176 180 185 184 178 174 178 187 188 188 190 191
205 202 198 195 196 199 203 207 206 203 201 201 202 202 202 203 206 207 207 207 209 210 211 213 212 210 207 204 201 200 201 203 205 205 206 208 209 207 205 202 201 199 199 201 200 200 200 199 200 202 203 200 198 201 202 192 174 172 178 186 183 177 175 183 189 187 184 185 183
207 204 201 198 199 201 204 207 206 205 204 205 205 205 204 206 208 210 210 210 210 210 210 213 212 209 205 204 203 202 202 203 203 204 206 208 209 208 205 204 202 201 201 201 201 201 200 197 200 204 206 203 199 201 201 190 174 174 181 190 185 179 180 191 187 180 176 179 174
208 206 204 202 202 203 204 207 206 205 204 205 206 207 208 209 211 213 214 213 210 210 210 211 210 208 205 203 203 204 204 204 203 204 206 208 208 208 207 204 203 202 202 201 201 201 200 195 200 206 209 205 202 202 201 187 177 181 189 193 186 183 186 193 180 172 170 173 171
209 209 207 206 205 205 206 208 207 206 205 205 206 208 211 212 212 214 215 214 212 211 210 209 209 207 204 201 202 203 205 205 203 205 207 209 209 209 207 205 204 204 203 201 200 200 198 193 200 207 211 208 205 204 199 178 178 186 195 196 192 190 188 187 174 166 165 169 170
210 210 210 209 207 206 208 210 208 207 206 206 207 209 212 213 212 212 213 215 215 213 210 207 208 207 204 200 201 202 204 205 205 206 208 209 210 209 209 209 208 207 205 202 200 198 196 193 201 209 212 209 208 203 190 169 176 188 200 204 201 194 186 183 170 165 165 170 172
210 210 211 211 208 207 208 210 209 209 208 209 209 211 213 214 213 213 214 216 216 213 209 206 208 207 205 200 200 202 204 205 207 208 208 211 211 211 211 212 212 210 208 204 201 199 198 196 203 209 210 205 203 192 178 167 176 187 199 206 203 192 181 181 168 164 168 177 179
212 211 211 212 209 208 208 209 209 209 210 212 213 213 214 215 215 215 215 215 216 214 210 208 209 207 205 201 201 202 203 204 206 208 212 217 216 215 215 214 215 214 212 207 203 201 201 201 206 209 208 201 196 184 171 166 175 186 198 206 202 190 176 175 166 166 172 178 183
213 212 212 212 211 209 208 208 209 210 212 215 216 216 215 216 217 217 216 216 216 214 211 210 208 207 205 203 202 201 200 201 204 210 216 220 219 218 217 216 217 217 216 211 206 203 202 203 209 210 207 198 193 181 169 165 176 186 196 202 196 185 171 163 163 169 174 178 185
214 212 211 212 212 210 209 208 210 212 215 218 219 218 217 216 217 218 218 217 216 214 213 213 208 204 204 204 203 200 197 196 201 208 214 218 219 219 218 217 217 217 216 213 208 204 203 205 211 212 208 197 192 182 171 166 176 185 191 191 183 178 175 172 171 175 180 184 190
214 212 210 210 210 210 209 209 212 214 217 220 221 221 218 216 217 219 219 218 217 216 215 212 205 202 202 203 202 198 194 192 197 205 212 216 219 221 220 219 216 215 214 213 209 206 204 207 210 211 208 200 193 185 176 170 176 182 185 179 175 179 185 189 186 188 191 194 196
215 213 211 210 209 209 209 210 213 216 219 222 223 222 221 219 218 218 218 218 219 218 216 210 203 200 200 201 199 196 192 190 197 205 212 216 220 223 224 223 219 216 214 213 209 207 207 209 209 209 208 202 197 189 180 173 175 178 180 177 177 184 193 199 199 202 205 205 205
216 215 213 211 209 209 209 212 215 217 219 222 223 223 222 221 218 216 216 218 220 220 217 209 203 201 200 199 196 193 191 192 198 205 212 216 221 224 226 226 221 218 216 213 210 209 209 210 208 208 207 204 200 192 184 176 176 177 179 179 182 190 200 208 211 215 216 215 216
216 215 214 212 209 209 210 213 216 219 220 222 223 223 223 223 219 215 214 217 220 221 218 211 206 203 201 197 194 192 192 193 200 207 213 219 220 223 225 225 222 220 218 216 212 211 212 212 209 208 206 205 201 194 186 179 177 177 178 181 188 196 206 214 216 218 218 219 221
215 215 215 213 211 210 212 214 217 220 222 223 224 224 224 224 220 216 215 217 220 220 217 213 210 207 202 197 194 192 192 193 200 209 217 222 222 224 225 223 221 221 221 220 216 214 213 213 211 207 205 204 200 194 187 182 179 179 181 185 193 203 211 216 218 218 218 218 221
214 215 215 213 212 212 213 214 217 220 222 223 223 223 223 224 221 218 216 217 219 219 218 216 213 209 203 199 195 192 192 195 206 218 225 227 226 225 223 219 219 222 224 224 220 217 215 213 211 207 203 201 198 193 187 182 181 181 184 191 202 210 215 219 220 220 220 220 222
213 214 214 213 213 213 214 215 218 220 222 223 222 221 221 223 223 220 217 216 217 217 217 217 214 210 205 201 196 193 194 200 212 222 228 229 226 222 218 215 220 225 228 228 225 221 216 212 210 206 201 197 193 189 185 183 181 182 188 201 211 216 219 221 222 223 223 223 225
213 213 213 212 213 215 215 217 218 220 222 223 222 220 219 220 222 221 219 215 215 216 218 218 216 213 209 205 199 196 198 206 215 221 224 225 222 217 213 214 221 226 229 229 226 222 216 210 207 203 198 193 190 188 187 186 183 187 196 208 216 220 223 224 225 225 225 224 225
212 212 212 212 214 215 216 217 219 221 222 223 222 220 219 218 219 220 219 216 213 214 217 221 220 216 212 207 203 201 203 210 216 220 221 220 216 213 212 214 220 224 225 225 223 219 213 207 201 197 193 191 191 191 192 192 190 195 203 213 220 224 226 227 227 228 227 225 224
211 210 211 211 213 215 216 218 219 221 222 223 222 221 219 217 216 217 217 216 212 211 214 219 219 216 213 208 206 207 209 212 214 216 216 214 211 210 211 213 216 218 218 218 217 215 211 207 201 195 192 191 194 196 198 197 198 202 207 215 221 225 226 227 227 227 226 224 222
210 209 209 210 212 214 216 218 220 221 223 224 222 221 219 217 215 215 215 214 211 211 213 216 216 214 211 208 209 212 214 215 213 212 212 211 210 210 210 211 211 213 213 213 213 212 210 208 202 197 194 193 197 200 201 200 203 207 212 217 222 224 225 225 224 223 222 221 219
209 208 208 209 211 213 216 218 220 221 222 222 222 220 219 217 215 213 212 211 212 213 215 215 214 212 210 210 214 218 220 218 212 210 210 209 210 209 209 207 208 209 211 211 211 211 208 206 200 197 195 197 200 202 202 202 206 212 216 221 224 225 224 223 221 219 218 217 216
209 212 214 213 213 214 216 218 220 221 221 220 219 218 218 217 214 211 209 207 210 213 215 214 212 212 213 216 221 223 222 219 214 211 209 208 209 209 208 206 206 208 209 209 208 207 206 204 199 196 196 199 202 203 203 204 208 214 219 223 226 226 225 222 218 216 215 214 214
201 211 220 225 222 220 219 219 222 222 221 218 216 215 215 214 213 209 206 205 209 212 214 214 211 212 215 222 225 225 223 219 215 212 209 208 208 207 206 205 206 207 207 205 201 199 198 198 196 195 197 199 201 203 204 205 209 214 219 224 226 227 225 221 217 215 214 214 214
194 205 214 219 219 218 217 218 221 222 221 217 214 213 213 212 210 208 206 206 209 211 213 214 212 211 213 221 224 225 223 220 215 211 208 207 207 207 205 205 206 206 202 194 188 186 186 185 189 194 197 199 202 204 205 206 210 214 218 221 223 223 223 220 217 215 214 215 215
195 202 209 213 213 212 213 216 220 221 220 216 213 212 211 210 209 207 206 207 210 212 213 214 212 210 210 213 218 220 221 220 215 210 206 204 205 205 205 206 205 201 191 177 173 173 176 179 182 188 194 200 203 205 207 210 212 215 217 219 219 219 218 218 217 216 216 216 217
201 206 210 212 210 210 211 215 218 219 218 214 212 212 211 210 208 207 207 209 211 212 213 213 212 210 207 207 210 212 214 216 213 208 205 202 202 202 203 205 203 194 180 168 167 170 176 180 182 184 189 200 206 209 211 214 215 216 217 218 217 216 215 215 215 215 216 218 219
208 211 213 214 212 211 211 213 216 217 217 214 211 211 210 210 208 207 208 209 211 211 211 212 211 209 206 207 207 207 207 208 207 205 202 200 199 199 200 202 199 190 178 172 173 177 182 187 190 191 193 202 213 217 216 215 215 216 216 218 217 216 215 215 215 214 214 214 214
208 211 212 212 212 212 212 213 214 216 217 215 212 209 208 208 209 209 209 209 209 209 209 208 207 206 205 207 206 203 200 199 197 195 192 192 195 197 198 198 195 187 179 175 178 182 187 192 197 199 201 204 215 221 221 218 216 215 215 217 216 215 215 215 214 212 209 206 199
208 210 211 212 213 213 213 213 214 215 216 216 213 209 205 205 208 210 210 210 209 208 206 201 198 199 202 201 196 192 190 189 184 180 178 182 188 192 193 190 187 180 173 170 175 181 188 196 203 208 209 208 216 222 225 222 217 214 212 213 213 212 211 211 209 204 197 187 174
210 211 212 213 213 214 214 214 214 215 215 215 212 208 205 203 206 208 210 210 209 207 201 191 188 190 192 188 180 177 175 171 163 157 154 155 158 162 164 168 170 166 163 165 175 186 198 210 218 221 220 216 219 222 223 219 213 210 208 208 207 206 205 202 197 189 179 166 157
210 211 212 213 214 214 214 213 213 212 212 211 210 207 205 204 206 207 208 208 206 200 191 182 180 177 172 163 160 156 151 141 131 124 121 122 123 127 141 167 186 187 185 188 205 219 227 233 233 231 227 221 221 221 219 213 208 204 202 201 199 196 191 185 178 169 162 156 154
208 209 210 212 214 215 214 213 211 209 207 205 205 204 204 205 206 207 206 203 196 188 181 176 170 162 153 144 138 131 125 119 118 120 122 126 132 149 190 222 228 224 221 226 236 240 240 238 235 231 226 220 219 217 213 205 198 190 184 179 172 163 155 149 145 144 143 143 140
205 207 209 212 214 215 215 213 208 203 199 198 200 200 201 203 203 202 198 188 175 171 170 170 162 152 143 132 123 118 115 114 117 121 126 134 150 189 227 247 295 336 290 236 236 236 234 231 228 225 220 214 212 207 197 182 162 136 115 101 92 89 90 92 96 101 107 111 109
202 205 208 212 214 214 213 209 201 194 190 191 193 194 195 195 194 188 173 145 131 131 143 153 148 140 130 118 113 113 114 115 114 117 125 144 172 205 275 8 16 12 359 253 228 225 223 221 218 213 207 198 193 178 156 134 112 100 94 87 78 72 70 70 71 74 78 83 88
200 202 206 210 210 209 204 195 185 179 178 179 178 176 175 177 170 149 125 106 95 97 113 127 135 136 129 112 107 109 117 123 120 122 129 142 149 126 71 39 20 9 359 312 220 212 210 207 200 191 180 168 157 138 119 104 94 88 84 82 78 74 73 73 72 71 72 75 81
198 199 201 203 202 197 188 176 169 168 168 165 158 148 142 137 125 111 102 100 103 110 118 125 135 138 135 119 105 99 103 117 118 117 116 115 116 105 86 60 30 14 11 25 108 160 171 172 167 160 152 144 132 118 105 97 94 89 86 83 79 77 76 76 75 74 75 77 81
193 193 192 192 189 182 173 163 163 164 162 156 146 136 130 123 112 101 99 105 122 129 129 128 134 133 125 110 93 78 70 72 83 91 94 91 92 92 89 79 51 31 29 42 65 84 103 117 127 131 132 128 122 115 108 105 103 99 95 91 87 82 79 79 78 78 79 82 86
184 183 181 179 175 168 161 156 158 159 157 152 143 134 127 118 110 100 97 100 116 126 129 124 122 116 108 101 92 79 66 59 62 69 77 79 79 83 87 88 71 53 46 51 62 72 81 90 98 105 110 114 115 114 113 111 108 106 103 100 96 89 84 80 80 82 84 87 90
172 170 169 167 162 157 153 152 153 153 151 146 140 134 129 120 112 104 98 97 104 110 112 109 104 101 98 98 93 85 76 66 62 65 72 78 80 82 84 86 78 67 60 59 65 72 78 83 89 94 100 105 110 113 115 114 112 110 108 107 103 97 90 84 83 84 86 88 89
160 159 158 157 155 152 150 148 147 145 142 138 136 133 129 122 115 109 104 101 101 101 99 97 96 95 95 95 94 91 86 77 70 69 73 78 80 80 79 78 76 71 67 64 68 73 78 83 87 92 97 103 108 112 115 116 113 112 112 111 108 105 102 97 93 90 90 89 87